Nantucket, MA

3:50 AM EDT on June 25, 2017 (GMT -0400)
Nantucket Memorial

Weather History for KACK - October, 2012

Change the Weather History Date:

Monday, October 1, 2012

  Actual Average Record
Temperature  
Mean Temperature 63 °F -  
Max Temperature 68 °F 65 °F 77 °F (1950)
Min Temperature 60 °F 50 °F 40 °F (1965)
Degree Days  
Heating Degree Days 2    
Growing Degree Days 13 (Base 50)    
Moisture  
Dew Point 53 °F    
Average Humidity 72    
Maximum Humidity 90    
Minimum Humidity 54    
Precipitation  
Precipitation 0.00 in - - ()
Sea Level Pressure  
Sea Level Pressure 29.84 in    
Wind  
Wind Speed 20 mph (WSW)    
Max Wind Speed 28 mph    
Max Gust Speed 38 mph    
Visibility 10 miles    
Events      
Averages and records for this station are not official NWS values.
T = Trace of Precipitation, MM = Missing Value Source: NWS Daily Summary

Daily Weather History Graph

Daily Weather History Graph

Search for Another Location

Airport or City:

Trip Planner

Search our weather history database for the weather conditions in past years. The results will help you decide how hot, cold, wet, or windy it might be!

Date:

Astronomy

Oct. 01, 2012 Rise Set
Actual Time 6:37 AM EDT 6:21 PM EDT
Civil Twilight 6:09 AM EDT 6:48 PM EDT
Nautical Twilight 5:37 AM EDT 7:20 PM EDT
Astronomical Twilight 5:05 AM EDT 7:53 PM EDT
Moon 6:54 PM EDT (10/1) 8:05 AM EDT (10/1)
Length of Visible Light 12h 38m
Length of Day
11h 43m
Full, 98% of the Moon is Illuminated
Oct 1
Full
Oct 8
Last Quarter
Oct 15
New
Oct 21
First Quarter
Oct 29
Full

Hourly Weather History & Observations

Time (EDT) Temp. Dew Point Humidity Pressure Visibility Wind Dir Wind Speed Gust Speed Precip Events Conditions
12:53 AM 61.0 °F 53.1 °F 75% 29.79 in 10.0 mi SSW 20.7 mph 26.5 mph N/A   Overcast
1:53 AM 61.0 °F 55.0 °F 81% 29.78 in 10.0 mi SSW 15.0 mph 25.3 mph N/A   Partly Cloudy
2:53 AM 62.1 °F 53.1 °F 72% 29.78 in 10.0 mi WSW 16.1 mph 20.7 mph N/A   Clear
3:53 AM 61.0 °F 53.1 °F 75% 29.78 in 10.0 mi WSW 17.3 mph 24.2 mph N/A   Clear
4:53 AM 61.0 °F 50.0 °F 67% 29.78 in 10.0 mi WSW 21.9 mph 26.5 mph N/A   Clear
5:53 AM 60.1 °F 50.0 °F 69% 29.79 in 10.0 mi WSW 20.7 mph 27.6 mph N/A   Clear
7:53 AM 62.1 °F 51.1 °F 67% 29.80 in 10.0 mi WSW 21.9 mph 31.1 mph N/A   Clear
8:53 AM 63.0 °F 51.1 °F 65% 29.82 in 10.0 mi WSW 27.6 mph 34.5 mph N/A   Clear
9:53 AM 64.0 °F 51.1 °F 63% 29.83 in 10.0 mi WSW 26.5 mph 36.8 mph N/A   Clear
11:53 AM 66.0 °F 48.9 °F 54% 29.82 in 10.0 mi WSW 27.6 mph 36.8 mph N/A   Clear
12:53 PM 66.9 °F 51.1 °F 57% 29.83 in 10.0 mi WSW 27.6 mph 34.5 mph N/A   Clear
1:53 PM 66.9 °F 52.0 °F 59% 29.82 in 10.0 mi WSW 24.2 mph 38.0 mph N/A   Clear
3:53 PM 66.0 °F 54.0 °F 65% 29.83 in 10.0 mi WSW 25.3 mph 31.1 mph N/A   Clear
5:53 PM 63.0 °F 55.9 °F 78% 29.87 in 10.0 mi WSW 18.4 mph 26.5 mph N/A   Clear
6:53 PM 62.1 °F 57.0 °F 84% 29.89 in 10.0 mi WSW 13.8 mph - N/A   Clear
7:53 PM 63.0 °F 57.0 °F 81% 29.92 in 10.0 mi West 13.8 mph - N/A   Clear
8:53 PM 62.1 °F 57.0 °F 84% 29.94 in 10.0 mi WSW 11.5 mph - N/A   Clear
9:53 PM 62.1 °F 57.0 °F 84% 29.96 in 10.0 mi WSW 10.4 mph - N/A   Clear
11:53 PM 61.0 °F 57.9 °F 90% 29.97 in 10.0 mi West 6.9 mph - N/A   Clear